Terug naar catalogus

STARLINK-35050

ActiefCommunicatieSSO
NORAD 65440·PAYLOAD·🇺🇸 United States

Gelanceerd Sep 3, 2025 vanaf Vandenberg Space Force Base

Loading…

Volgende Passages (komende 24 uur)

TLE

VersSource: CelesTrak SupGP

Epoch: Sep 14, 2026, 15:02 UTC

1 65440C 25194G   26257.62687500 -.00059893  00000+0 -18594-2 0  2577
2 65440  97.2846 107.4041 0001925  88.1313 177.1218 15.33466481    14

Volg STARLINK-35050 in realtime met AllMySat

Download on the App Store